Chehalis, WA
on Wednesday, January 16, 2013

Wednesday
Previous Day Next Day
Daily Summary
 ActualAverage (KOLM)Record (KOLM)
Temperature
Mean Temperature °F 40°F  
Max Temperature 33°F 46°F 56°F (2011)
Min Temperature 30°F 34°F 16°F (1950)
Degree Days
Heating Degree Days 34 25  
Month to date heating degree days 410  
Since 1 July heating degree days 2680  
Cooling Degree Days 0 0  
Month to date cooling degree days 0  
Year to date cooling degree days 0  
Moisture
Dew Point 32°F   
Average Humidity 99    
Maximum Humidity 100    
Minimum Humidity 93    
Precipitation
Precipitation 0.00 in 0.27 in 1.49 in (2006)
Month to date precipitation 4.16  
Year to date precipitation 4.16  
Wind
Wind Speed 0 mph   
Max Wind Speed 5 mph   
Max Gust Speed mph   
Visibility 1 miles   
Events Fog   

Key: T is trace of precipitation, MM is missing value
Source: NWS Daily Summary
Time(PST)TemperatureDew PointHumidity Pressure Visibility Wind DirectionWind SpeedGust SpeedPrecipitationEvents Conditions
12:35 AM 30.2°F 30.2°F 100% 30.69 in 0.2 miles Calm Calm - N/A Fog Light Freezing Fog
12:55 AM 30.2°F 28.4°F 93% 30.68 in 0.5 miles Calm Calm - N/A Fog Light Freezing Fog
1:15 AM 30.2°F 30.2°F 100% 30.68 in 0.8 miles Calm Calm - N/A   Overcast
1:35 AM 30.2°F 30.2°F 100% 30.68 in 0.5 miles Calm Calm - N/A Fog Light Freezing Fog
1:55 AM 30.2°F 30.2°F 100% 30.68 in 0.2 miles Calm Calm - N/A Fog Light Freezing Fog
2:15 AM 32.0°F 30.2°F 93% 30.69 in 0.2 miles Calm Calm - N/A Fog Light Freezing Fog
2:35 AM 32.0°F 30.2°F 93% 30.69 in 0.5 miles Calm Calm - N/A Fog Light Freezing Fog
2:55 AM 32.0°F 32.0°F 100% 30.69 in 0.2 miles Calm Calm - N/A Fog Light Freezing Fog
3:35 AM 32.0°F 32.0°F 100% 30.68 in 1.2 miles Calm Calm - N/A   Overcast
3:55 AM 32.0°F 32.0°F 100% 30.68 in 0.8 miles Calm Calm - N/A   Overcast
4:35 AM 32.0°F 32.0°F 100% 30.67 in 1.8 miles Calm Calm - N/A   Overcast
4:55 AM 32.0°F 32.0°F 100% 30.67 in 3.0 miles Calm Calm - N/A   Overcast
5:15 AM 32.0°F 32.0°F 100% 30.66 in 1.5 miles Calm Calm - N/A   Overcast
5:35 AM 32.0°F 32.0°F 100% 30.66 in 1.0 miles Calm Calm - N/A   Overcast
5:55 AM 32.0°F 32.0°F 100% 30.66 in 5.0 miles Calm Calm - N/A   Overcast
6:15 AM 32.0°F 32.0°F 100% 30.66 in 1.8 miles Calm Calm - N/A   Overcast
6:35 AM 32.0°F 32.0°F 100% 30.66 in 1.5 miles Calm Calm - N/A   Overcast
6:55 AM 32.0°F 32.0°F 100% 30.65 in 1.8 miles Calm Calm - N/A   Overcast
7:15 AM 32.0°F 32.0°F 100% 30.65 in 2.5 miles Calm Calm - N/A   Overcast
7:35 AM 32.0°F 32.0°F 100% 30.66 in 3.0 miles Calm Calm - N/A   Overcast
7:55 AM 32.0°F 32.0°F 100% 30.66 in 2.5 miles Calm Calm - N/A   Overcast
8:15 AM 32.0°F 32.0°F 100% 30.66 in 0.5 miles Calm Calm - N/A Fog Light Freezing Fog
8:35 AM 32.0°F 32.0°F 100% 30.66 in 1.0 miles Calm Calm - N/A   Overcast
8:55 AM 32.0°F 32.0°F 100% 30.66 in 1.5 miles SSE 3.5 mph - N/A   Overcast
9:15 AM 32.0°F 32.0°F 100% 30.67 in 3.0 miles Calm Calm - N/A   Overcast
9:35 AM 32.0°F 32.0°F 100% 30.66 in 3.0 miles Calm Calm - N/A   Overcast
9:55 AM 32.0°F 32.0°F 100% 30.66 in 1.8 miles SSW 4.6 mph - N/A   Overcast
10:15 AM 32.0°F 32.0°F 100% 30.65 in 1.0 miles Calm Calm - N/A   Overcast
10:55 AM 32.0°F 32.0°F 100% 30.65 in 1.5 miles Calm Calm - N/A   Overcast
11:15 AM 32.0°F 32.0°F 100% 30.64 in 1.0 miles Calm Calm - N/A   Overcast
11:35 AM 32.0°F 32.0°F 100% 30.64 in 1.8 miles Calm Calm - N/A   Overcast
11:55 AM 32.0°F 32.0°F 100% 30.63 in 1.2 miles Calm Calm - N/A   Overcast
12:15 PM 32.0°F 32.0°F 100% 30.63 in 1.5 miles Calm Calm - N/A   Overcast
12:35 PM 32.0°F 32.0°F 100% 30.62 in 1.0 miles NNW 3.5 mph - N/A   Overcast
12:55 PM 32.0°F 32.0°F 100% 30.62 in 1.0 miles Calm Calm - N/A   Overcast
1:15 PM 32.0°F 32.0°F 100% 30.61 in 1.8 miles North 3.5 mph - N/A   Overcast
1:35 PM 32.0°F 32.0°F 100% 30.61 in 2.5 miles North 4.6 mph - N/A   Overcast
1:55 PM 32.0°F 32.0°F 100% 30.60 in 3.0 miles Calm Calm - N/A   Overcast
2:15 PM 33.8°F 32.0°F 93% 30.59 in 4.0 miles Calm Calm - N/A   Overcast
2:35 PM 33.8°F 32.0°F 93% 30.59 in 3.0 miles Calm Calm - N/A   Overcast
2:55 PM 33.8°F 32.0°F 93% 30.59 in 3.0 miles NNE 3.5 mph - N/A   Overcast
3:15 PM 33.8°F 32.0°F 93% 30.59 in 2.0 miles North 3.5 mph - N/A   Overcast
3:35 PM 33.8°F 32.0°F 93% 30.59 in 2.0 miles Calm Calm - N/A   Overcast
3:55 PM 32.0°F 32.0°F 100% 30.58 in 0.8 miles Calm Calm - N/A   Overcast
4:15 PM 32.0°F 32.0°F 100% 30.58 in 3.0 miles North 3.5 mph - N/A   Overcast
4:35 PM 32.0°F 32.0°F 100% 30.57 in 0.8 miles Calm Calm - N/A   Overcast
4:55 PM 32.0°F 32.0°F 100% 30.57 in 1.2 miles Calm Calm - N/A   Overcast
5:15 PM 32.0°F 32.0°F 100% 30.57 in 1.8 miles Calm Calm - N/A   Overcast
5:35 PM 32.0°F 32.0°F 100% 30.57 in 2.0 miles Calm Calm - N/A   Overcast
5:55 PM 32.0°F 32.0°F 100% 30.57 in 3.0 miles Calm Calm - N/A   Overcast
6:15 PM 32.0°F 32.0°F 100% 30.56 in 3.0 miles Calm Calm - N/A   Overcast
6:55 PM 32.0°F 32.0°F 100% 30.57 in 1.2 miles Calm Calm - N/A   Overcast
7:15 PM 32.0°F 32.0°F 100% 30.57 in 0.8 miles Calm Calm - N/A   Overcast
7:35 PM 33.8°F 32.0°F 93% 30.57 in 1.5 miles Calm Calm - N/A   Overcast
7:55 PM 32.0°F 32.0°F 100% 30.57 in 0.8 miles Calm Calm - N/A   Overcast
8:15 PM 32.0°F 32.0°F 100% 30.56 in 0.5 miles SSW 3.5 mph - N/A Fog Fog
8:35 PM 32.0°F 32.0°F 100% 30.56 in 0.5 miles Calm Calm - N/A Fog Fog
8:55 PM 32.0°F 32.0°F 100% 30.55 in 0.2 miles Calm Calm - N/A Fog Fog
9:15 PM 32.0°F 32.0°F 100% 30.55 in 0.2 miles Calm Calm - N/A Fog Fog
9:35 PM 32.0°F 32.0°F 100% 30.55 in 0.2 miles Calm Calm - N/A Fog Fog
9:55 PM 32.0°F 32.0°F 100% 30.55 in 0.2 miles Calm Calm - N/A Fog Fog
10:15 PM 32.0°F 32.0°F 100% 30.53 in 0.2 miles SSW 3.5 mph - N/A Fog Fog
10:35 PM 32.0°F 32.0°F 100% 30.53 in 0.2 miles Calm Calm - N/A Fog Fog
10:55 PM 32.0°F 32.0°F 100% 30.53 in 0.5 miles Calm Calm - N/A Fog Fog
11:15 PM 32.0°F 32.0°F 100% 30.53 in 0.5 miles Calm Calm - N/A Fog Fog
11:35 PM 32.0°F 32.0°F 100% 30.54 in 0.5 miles Calm Calm - N/A Fog Fog
11:55 PM 32.0°F 32.0°F 100% 30.53 in 0.5 miles Calm Calm - N/A Fog Fog
Moon Phase
Jan. 16 Jan. 18 Jan. 26 Feb. 03 Feb. 10
Sunrise:07:51 AM (PST) Moon Rise:10:06 AM (PST)1/16
Sunset:04:52 PM (PST) Moon Set:11:15 PM (PST)1/16

Copyright © 2014 The Weather Underground, Inc.